Location: Benque
(43.2594°N, 0.9178°E)
Time: 15:23:09
(UTC+00:00)

Cosmos 2227 - Pass Details

Date: 24 January 2020
Orbit: 836 x 860 km, 71.0° (Epoch: 26 February)

Event Time Altitude Azimuth Distance (km) Brightness Sun altitude
Rises 19:06:38 0° 191° (S) 3,419 7.6 -23.5°
Reaches altitude 10° 19:09:07 10° 187° (S) 2,485 6.8 -23.9°
Enters shadow 19:14:22 57° 126° (SE) 999 4.2 -24.9°
